TimeCDT,TemperatureF,Dew PointF,Humidity,Sea Level PressureIn,VisibilityMPH,Wind Direction,Wind SpeedMPH,Gust SpeedMPH,PrecipitationIn,Events,Conditions,WindDirDegrees,DateUTC
12:38 AM,19.4,10.4,68,30.06,10.0,North,17.3,-,0.00,Snow,Light Snow,350,2013-03-21 05:38:00
12:49 AM,19.4,12.2,74,30.06,8.0,NNW,15.0,-,0.00,Snow,Light Snow,340,2013-03-21 05:49:00
12:56 AM,19.0,13.1,78,30.13,4.0,NNW,16.1,-,0.00,Snow,Light Snow,330,2013-03-21 05:56:00
1:12 AM,17.6,12.2,79,30.06,10.0,NNW,13.8,-,0.00,Snow,Light Snow,330,2013-03-21 06:12:00
1:41 AM,17.6,8.6,68,30.05,10.0,NNW,12.7,-,0.00,,Overcast,340,2013-03-21 06:41:00
1:56 AM,18.1,8.1,65,30.12,10.0,NNW,12.7,-,0.00,,Mostly Cloudy,330,2013-03-21 06:56:00
2:05 AM,17.6,8.6,68,30.05,10.0,NNW,13.8,-,N/A,,Scattered Clouds,330,2013-03-21 07:05:00
2:56 AM,17.1,9.1,71,30.12,10.0,NNW,13.8,-,0.00,Snow,Light Snow,330,2013-03-21 07:56:00
3:56 AM,15.1,7.2,71,30.12,10.0,NNW,11.5,-,0.00,,Clear,340,2013-03-21 08:56:00
4:56 AM,14.0,8.1,77,30.11,10.0,NNW,8.1,-,N/A,,Clear,340,2013-03-21 09:56:00
5:56 AM,13.1,8.1,80,30.14,10.0,North,8.1,-,N/A,,Clear,350,2013-03-21 10:56:00
6:56 AM,12.0,7.2,81,30.14,10.0,NNW,6.9,-,N/A,,Clear,330,2013-03-21 11:56:00
7:56 AM,15.1,8.1,74,30.16,6.0,NW,8.1,-,N/A,,Haze,320,2013-03-21 12:56:00
8:56 AM,18.1,6.1,59,30.16,10.0,NNW,9.2,-,N/A,,Clear,330,2013-03-21 13:56:00
9:56 AM,20.1,5.0,52,30.16,10.0,NW,4.6,-,N/A,,Clear,310,2013-03-21 14:56:00
10:56 AM,23.0,6.1,48,30.16,10.0,WNW,6.9,-,N/A,,Clear,300,2013-03-21 15:56:00
11:56 AM,26.1,5.0,41,30.14,10.0,SW,5.8,-,N/A,,Clear,230,2013-03-21 16:56:00
12:56 PM,28.0,7.2,41,30.13,10.0,Variable,5.8,-,N/A,,Clear,0,2013-03-21 17:56:00
1:56 PM,31.1,8.1,38,30.11,10.0,Variable,6.9,-,N/A,,Clear,0,2013-03-21 18:56:00
2:56 PM,32.0,7.2,35,30.09,10.0,Calm,Calm,-,N/A,,Clear,0,2013-03-21 19:56:00
3:56 PM,32.9,9.1,37,30.08,10.0,Variable,4.6,-,N/A,,Clear,0,2013-03-21 20:56:00
4:56 PM,34.0,9.1,36,30.07,10.0,WNW,6.9,-,N/A,,Clear,290,2013-03-21 21:56:00
5:56 PM,34.9,10.0,36,30.06,10.0,NE,6.9,-,N/A,,Clear,40,2013-03-21 22:56:00
6:56 PM,32.0,10.0,40,30.08,10.0,North,4.6,-,N/A,,Clear,360,2013-03-21 23:56:00
7:56 PM,29.1,12.0,49,30.09,10.0,NE,3.5,-,N/A,,Clear,40,2013-03-22 00:56:00
8:56 PM,27.1,13.1,56,30.09,10.0,NE,4.6,-,N/A,,Clear,50,2013-03-22 01:56:00
9:56 PM,26.1,15.1,63,30.11,10.0,East,3.5,-,N/A,,Clear,100,2013-03-22 02:56:00
10:56 PM,24.1,16.2,72,30.10,10.0,Calm,Calm,-,N/A,,Clear,0,2013-03-22 03:56:00
11:56 PM,24.1,16.2,72,30.10,10.0,Calm,Calm,-,N/A,,Clear,0,2013-03-22 04:56:00